No;Time;Interval(mi);Indoor Humidity(%);Indoor Temperature(�C);Outdoor Humidity(%);Outdoor Temperature(�C);Absolute Pressure(Hpa);Wind(m/s);Gust(m/s);Direction;Relative Pressure(Hpa);Dewpoint(�C);Windchill(�C);Total Rainfall(mm)
1;2014-04-01 00:01:01;10;47;20.5;82;11.3;1007.2;0.0;0.0;NW;1010.4;8.3;11.3;748.8;
2;2014-04-01 00:11:01;10;47;20.5;83;11.4;1007.2;0.0;0.0;NW;1010.4;8.6;11.4;748.8;
3;2014-04-01 00:21:01;10;47;20.5;83;11.4;1007.1;0.0;0.0;NW;1010.3;8.6;11.4;748.8;
4;2014-04-01 00:31:01;10;47;20.5;83;11.6;1007.2;0.0;0.0;NW;1010.4;8.8;11.6;748.8;
5;2014-04-01 00:41:01;10;47;20.5;83;11.4;1007.1;0.0;0.0;NW;1010.3;8.6;11.4;748.8;
6;2014-04-01 00:51:00;10;47;20.5;83;11.2;1006.9;0.0;0.0;NW;1010.1;8.4;11.2;748.8;
7;2014-04-01 01:01:00;10;47;20.5;83;11.1;1006.9;0.0;0.0;NW;1010.1;8.3;11.1;748.8;
8;2014-04-01 01:11:01;10;47;20.5;83;11.1;1006.9;0.0;0.0;NW;1010.1;8.3;11.1;748.8;
9;2014-04-01 01:21:01;10;47;20.4;83;11.2;1006.8;0.0;0.0;NW;1010.0;8.4;11.2;748.8;
10;2014-04-01 01:31:01;10;47;20.4;83;11.3;1007.0;0.0;0.0;NW;1010.2;8.5;11.3;748.8;
11;2014-04-01 01:41:01;10;47;20.4;83;11.3;1006.7;0.0;0.0;NW;1009.9;8.5;11.3;748.8;
12;2014-04-01 01:51:00;10;47;20.4;83;11.2;1006.9;0.0;0.0;NW;1010.1;8.4;11.2;748.8;
13;2014-04-01 02:01:00;10;47;20.4;83;11.2;1006.7;0.0;0.0;NW;1009.9;8.4;11.2;748.8;
14;2014-04-01 02:11:01;10;46;20.4;83;11.1;1006.6;0.0;0.0;NW;1009.8;8.3;11.1;748.8;
15;2014-04-01 02:21:01;10;46;20.4;83;11.0;1006.7;0.0;0.0;NW;1009.9;8.2;11.0;748.8;
16;2014-04-01 02:31:01;10;46;20.3;84;10.9;1006.6;0.0;0.0;NW;1009.8;8.3;10.9;748.8;
17;2014-04-01 02:41:01;10;46;20.3;84;10.9;1006.6;0.0;0.0;NW;1009.8;8.3;10.9;748.8;
18;2014-04-01 02:51:01;10;46;20.3;84;11.0;1006.6;0.0;0.0;NW;1009.8;8.4;11.0;748.8;
19;2014-04-01 03:01:01;10;46;20.3;83;11.2;1006.6;0.0;0.0;NW;1009.8;8.4;11.2;748.8;
20;2014-04-01 03:11:01;10;46;20.3;83;11.3;1006.6;0.0;0.0;NW;1009.8;8.5;11.3;748.8;
21;2014-04-01 03:21:01;10;46;20.3;82;11.3;1006.4;0.0;0.0;NW;1009.6;8.3;11.3;748.8;
22;2014-04-01 03:31:01;10;46;20.3;81;11.2;1006.4;0.0;0.0;NW;1009.6;8.1;11.2;748.8;
23;2014-04-01 03:41:01;10;46;20.3;81;11.2;1006.4;0.0;0.0;NW;1009.6;8.1;11.2;748.8;
24;2014-04-01 03:51:00;10;46;20.3;81;11.1;1006.4;0.0;0.0;NW;1009.6;8.0;11.1;748.8;
25;2014-04-01 04:01:00;10;46;20.3;81;10.9;1006.4;0.0;0.0;NW;1009.6;7.8;10.9;748.8;
26;2014-04-01 04:11:01;10;46;20.3;81;10.5;1006.5;0.0;0.0;NW;1009.7;7.4;10.5;748.8;
27;2014-04-01 04:21:01;10;46;20.3;83;10.1;1006.4;0.0;0.0;NW;1009.6;7.3;10.1;748.8;
28;2014-04-01 04:31:01;10;47;20.3;83;10.0;1006.4;0.0;0.0;NW;1009.6;7.2;10.0;748.8;
29;2014-04-01 04:41:01;10;47;20.3;84;9.6;1006.5;0.0;0.0;NW;1009.7;7.0;9.6;748.8;
30;2014-04-01 04:51:01;10;47;20.4;85;9.4;1006.5;0.0;0.0;NW;1009.7;7.0;9.4;748.8;
31;2014-04-01 05:01:01;10;46;20.4;85;9.2;1006.5;0.0;0.0;NW;1009.7;6.8;9.2;748.8;
32;2014-04-01 05:11:01;10;46;20.4;86;9.0;1006.3;0.0;0.0;NW;1009.5;6.8;9.0;748.8;
33;2014-04-01 05:21:01;10;46;20.4;87;9.0;1006.4;0.0;0.0;NW;1009.6;7.0;9.0;748.8;
34;2014-04-01 05:31:01;10;46;20.4;88;8.9;1006.3;0.0;0.0;NW;1009.5;7.0;8.9;748.8;
35;2014-04-01 05:41:01;10;46;20.4;88;9.1;1006.4;0.0;0.0;NW;1009.6;7.2;9.1;748.8;
36;2014-04-01 05:51:00;10;47;20.3;89;9.6;1006.4;0.0;0.0;NW;1009.6;7.9;9.6;748.8;
37;2014-04-01 06:01:00;10;46;20.2;90;9.9;1006.4;0.0;0.0;NW;1009.6;8.3;9.9;748.8;
38;2014-04-01 06:11:01;10;47;20.2;88;10.3;1006.4;0.0;0.0;NW;1009.6;8.4;10.3;748.8;
39;2014-04-01 06:21:01;10;47;20.3;87;10.5;1006.4;0.0;0.0;NW;1009.6;8.4;10.5;748.8;
40;2014-04-01 06:31:01;10;47;20.3;86;11.0;1006.5;0.0;0.0;NW;1009.7;8.7;11.0;748.8;
41;2014-04-01 06:41:01;10;47;20.3;82;12.4;1006.4;0.0;0.0;NW;1009.6;9.4;12.4;748.8;
42;2014-04-01 06:51:01;10;48;20.4;78;13.8;1006.5;0.0;0.0;NW;1009.7;10.0;13.8;748.8;
43;2014-04-01 07:01:01;10;48;20.5;72;15.5;1006.6;0.0;0.0;NW;1009.8;10.5;15.5;748.8;
44;2014-04-01 07:11:01;10;48;20.6;68;16.7;1006.5;0.0;0.0;NW;1009.7;10.8;16.7;748.8;
45;2014-04-01 07:21:01;10;48;20.5;63;17.6;1006.6;0.0;0.0;NW;1009.8;10.5;17.6;748.8;
46;2014-04-01 07:31:01;10;48;20.6;59;17.3;1006.5;0.0;0.0;NW;1009.7;9.2;17.3;748.8;
47;2014-04-01 07:41:01;10;48;20.6;60;17.8;1006.5;0.0;0.0;NW;1009.7;9.9;17.8;748.8;
48;2014-04-01 07:51:01;10;48;20.7;58;18.4;1006.6;0.0;0.0;NW;1009.8;10.0;18.4;748.8;
49;2014-04-01 08:01:01;10;48;20.7;56;19.0;1006.7;0.0;0.0;NW;1009.9;10.0;19.0;748.8;
50;2014-04-01 08:11:01;10;48;20.7;53;20.1;1006.6;0.0;0.0;NW;1009.8;10.2;20.1;748.8;
51;2014-04-01 08:21:01;10;48;20.7;50;19.5;1006.6;0.0;0.0;NW;1009.8;8.8;19.5;748.8;
52;2014-04-01 08:31:01;10;48;20.8;53;18.4;1006.6;0.0;0.0;NW;1009.8;8.6;18.4;748.8;
53;2014-04-01 08:41:01;10;48;20.9;55;18.9;1006.5;0.0;0.0;NW;1009.7;9.7;18.9;748.8;
54;2014-04-01 08:51:01;10;48;20.9;53;18.9;1006.6;0.0;0.0;NW;1009.8;9.1;18.9;748.8;
55;2014-04-01 09:01:01;10;48;20.9;51;20.0;1006.6;0.0;0.0;NW;1009.8;9.5;20.0;748.8;
56;2014-04-01 09:11:01;10;48;20.9;48;20.7;1006.6;0.0;0.0;NW;1009.8;9.3;20.7;748.8;
57;2014-04-01 09:21:00;10;48;20.9;46;21.6;1006.6;0.0;0.0;NW;1009.8;9.5;21.6;748.8;
58;2014-04-01 09:31:00;10;47;21.0;44;22.2;1006.4;0.0;0.0;NW;1009.6;9.4;22.2;748.8;
59;2014-04-01 09:41:01;10;47;21.0;45;23.5;1006.5;0.0;0.0;NW;1009.7;10.9;23.5;748.8;
60;2014-04-01 09:51:00;10;47;21.1;44;24.1;1006.4;0.0;0.0;NW;1009.6;11.1;24.1;748.8;
61;2014-04-01 10:01:00;10;47;21.1;37;24.0;1006.4;0.0;0.0;NW;1009.6;8.4;24.0;748.8;
62;2014-04-01 10:11:01;10;46;21.1;41;22.7;1006.2;0.0;0.0;NW;1009.4;8.8;22.7;748.8;
63;2014-04-01 10:21:01;10;46;21.1;41;23.3;1006.2;0.0;0.0;NW;1009.4;9.3;23.3;748.8;
64;2014-04-01 10:31:01;10;46;21.1;41;22.6;1006.0;0.0;0.0;NW;1009.2;8.7;22.6;748.8;
65;2014-04-01 10:41:01;10;46;21.2;41;22.2;1006.0;0.0;0.0;NW;1009.2;8.3;22.2;748.8;
66;2014-04-01 10:51:01;10;46;21.2;41;22.8;1005.8;0.0;0.0;NW;1009.0;8.9;22.8;748.8;
67;2014-04-01 11:01:01;10;46;21.2;39;23.3;1005.7;0.0;0.0;NW;1008.9;8.6;23.3;748.8;
68;2014-04-01 11:11:01;10;46;21.2;40;22.9;1005.6;0.0;0.0;N;1008.8;8.6;22.9;748.8;
69;2014-04-01 11:21:01;10;46;21.2;38;23.3;1005.6;0.0;0.3;NW;1008.8;8.2;23.3;748.8;
70;2014-04-01 11:31:01;10;46;21.2;38;23.4;1005.4;0.0;0.7;W;1008.6;8.3;23.4;748.8;
71;2014-04-01 11:41:01;10;46;21.2;38;23.2;1005.4;0.0;0.3;W;1008.6;8.1;23.2;748.8;
72;2014-04-01 11:51:01;10;46;21.2;38;23.7;1005.1;0.0;0.3;NE;1008.3;8.5;23.7;748.8;
73;2014-04-01 12:01:01;10;46;21.2;36;24.2;1005.0;0.0;0.3;NE;1008.2;8.2;24.2;748.8;
74;2014-04-01 12:11:01;10;46;21.2;34;24.4;1004.9;0.0;0.3;N;1008.1;7.5;24.4;748.8;
75;2014-04-01 12:21:01;10;46;21.3;35;24.1;1004.5;0.0;0.3;WNW;1007.7;7.7;24.1;748.8;
76;2014-04-01 12:31:01;10;46;21.3;36;23.9;1004.5;0.0;0.7;SW;1007.7;7.9;23.9;748.8;
77;2014-04-01 12:41:01;10;46;21.3;34;24.1;1004.4;0.0;0.7;N;1007.6;7.2;24.1;748.8;
78;2014-04-01 12:51:00;10;46;21.3;35;24.2;1004.3;0.0;0.3;S;1007.5;7.8;24.2;748.8;
79;2014-04-01 13:01:00;10;46;21.3;37;23.8;1004.1;0.0;0.3;NE;1007.3;8.2;23.8;748.8;
80;2014-04-01 13:11:01;10;46;21.3;36;24.1;1004.0;0.0;0.0;NE;1007.2;8.1;24.1;748.8;
81;2014-04-01 13:21:01;10;46;21.3;35;24.0;1004.0;0.0;0.0;N;1007.2;7.6;24.0;748.8;
82;2014-04-01 13:31:01;10;46;21.3;35;24.6;1003.8;0.0;0.0;S;1007.0;8.1;24.6;748.8;
83;2014-04-01 13:41:01;10;46;21.4;34;24.3;1003.8;0.7;1.4;S;1007.0;7.4;24.3;748.8;
84;2014-04-01 13:51:01;10;46;21.4;34;24.5;1003.6;0.7;1.4;S;1006.8;7.6;24.5;748.8;
85;2014-04-01 14:01:01;10;46;21.4;33;25.1;1003.5;0.3;1.4;E;1006.7;7.7;25.1;748.8;
86;2014-04-01 14:11:01;10;46;21.4;33;24.5;1003.4;1.0;1.7;SE;1006.6;7.2;24.5;748.8;
87;2014-04-01 14:21:01;10;46;21.4;---;---;1003.3;---;---;---;1006.5;---;---;748.8;
88;2014-04-01 14:31:01;10;46;21.4;33;24.8;1003.1;0.3;1.0;S;1006.3;7.4;24.8;748.8;
89;2014-04-01 14:41:01;10;46;21.4;32;24.3;1003.1;1.0;2.4;NE;1006.3;6.5;24.3;748.8;
90;2014-04-01 14:51:00;10;46;21.3;34;24.0;1003.1;0.7;1.4;SE;1006.3;7.2;24.0;748.8;
91;2014-04-01 15:01:00;10;46;21.3;33;24.7;1003.0;0.3;1.0;NE;1006.2;7.3;24.7;748.8;
92;2014-04-01 15:11:01;10;46;21.3;34;24.2;1002.9;1.7;3.1;SW;1006.1;7.3;24.2;748.8;
93;2014-04-01 15:21:01;10;46;21.3;34;24.3;1003.0;0.3;1.0;N;1006.2;7.4;24.3;748.8;
94;2014-04-01 15:31:01;10;46;21.3;34;24.2;1002.9;1.4;2.0;SE;1006.1;7.3;24.2;748.8;
95;2014-04-01 15:41:01;10;46;21.3;35;23.0;1003.1;1.0;2.4;WNW;1006.3;6.7;23.0;748.8;
96;2014-04-01 15:51:00;10;46;21.3;37;22.2;1002.9;0.7;1.4;NW;1006.1;6.8;22.2;748.8;
97;2014-04-01 16:01:00;10;46;21.3;39;21.9;1002.9;1.7;3.4;E;1006.1;7.3;21.9;748.8;
98;2014-04-01 16:11:01;10;46;21.3;39;21.9;1002.9;1.7;3.4;E;1006.1;7.3;21.9;748.8;
99;2014-04-01 16:21:01;10;45;21.3;40;21.4;1002.7;0.7;1.0;NW;1005.9;7.2;21.4;748.8;
100;2014-04-01 16:31:01;10;45;21.3;41;21.3;1002.7;0.3;1.7;S;1005.9;7.5;21.3;748.8;
101;2014-04-01 16:41:01;10;45;21.3;42;21.1;1002.5;0.3;1.4;S;1005.7;7.7;21.1;748.8;
102;2014-04-01 16:51:01;10;46;21.3;43;20.9;1002.6;0.7;1.7;S;1005.8;7.8;20.9;748.8;
103;2014-04-01 17:01:01;10;46;21.3;43;20.7;1002.5;0.3;1.4;SW;1005.7;7.7;20.7;748.8;
104;2014-04-01 17:11:01;10;46;21.3;43;20.5;1002.5;0.7;1.4;NW;1005.7;7.5;20.5;748.8;
105;2014-04-01 17:21:01;10;46;21.2;44;20.3;1002.5;0.0;0.3;SW;1005.7;7.6;20.3;748.8;
106;2014-04-01 17:31:01;10;46;21.2;45;20.2;1002.4;0.7;1.4;E;1005.6;7.9;20.2;748.8;
107;2014-04-01 17:41:01;10;46;21.2;45;20.2;1002.5;0.3;1.4;SE;1005.7;7.9;20.2;748.8;
108;2014-04-01 17:51:00;10;46;21.2;45;20.1;1002.4;0.3;1.0;SW;1005.6;7.8;20.1;748.8;
109;2014-04-01 18:01:00;10;46;21.2;45;20.0;1002.6;0.0;0.7;NE;1005.8;7.7;20.0;748.8;
110;2014-04-01 18:11:01;10;46;21.2;47;19.8;1002.5;0.3;1.0;SE;1005.7;8.2;19.8;748.8;
111;2014-04-01 18:21:01;10;45;21.1;48;19.4;1002.4;0.3;0.7;SW;1005.6;8.1;19.4;748.8;
112;2014-04-01 18:31:01;10;46;21.1;49;19.2;1002.6;0.3;1.0;E;1005.8;8.2;19.2;748.8;
113;2014-04-01 18:41:01;10;46;21.1;51;18.9;1002.6;0.0;0.3;S;1005.8;8.5;18.9;748.8;
114;2014-04-01 18:51:01;10;46;21.2;53;18.6;1002.7;0.0;0.3;NE;1005.9;8.8;18.6;748.8;
115;2014-04-01 19:01:01;10;47;21.2;54;18.2;1003.0;0.0;0.3;W;1006.2;8.7;18.2;748.8;
116;2014-04-01 19:11:01;10;47;21.2;54;17.9;1002.9;0.0;0.0;W;1006.1;8.5;17.9;748.8;
117;2014-04-01 19:21:01;10;47;21.1;55;17.7;1003.0;0.0;0.3;NE;1006.2;8.5;17.7;748.8;
118;2014-04-01 19:31:01;10;47;21.1;56;17.5;1003.1;0.0;0.0;W;1006.3;8.6;17.5;748.8;
119;2014-04-01 19:41:01;10;47;21.1;56;17.0;1003.1;0.0;0.0;S;1006.3;8.2;17.0;748.8;
120;2014-04-01 19:51:00;10;47;21.2;60;16.6;1002.9;0.0;0.3;NE;1006.1;8.8;16.6;748.8;
121;2014-04-01 20:01:00;10;48;21.2;60;16.6;1003.0;0.0;0.3;S;1006.2;8.8;16.6;748.8;
122;2014-04-01 20:11:01;10;48;21.2;60;16.4;1003.0;0.0;0.3;SW;1006.2;8.6;16.4;748.8;
123;2014-04-01 20:21:01;10;48;21.2;62;16.3;1002.7;0.3;0.3;S;1005.9;9.0;16.3;748.8;
124;2014-04-01 20:31:01;10;48;21.2;62;16.3;1002.8;0.0;0.3;S;1006.0;9.0;16.3;748.8;
125;2014-04-01 20:41:01;10;48;21.2;62;16.3;1002.7;0.0;0.0;E;1005.9;9.0;16.3;748.8;
126;2014-04-01 20:51:00;10;48;21.2;62;16.2;1002.8;0.3;0.7;SE;1006.0;8.9;16.2;748.8;
127;2014-04-01 21:01:00;10;48;21.2;62;16.0;1002.7;0.0;0.3;S;1005.9;8.7;16.0;748.8;
128;2014-04-01 21:11:01;10;48;21.1;63;15.7;1002.7;0.0;0.3;SW;1005.9;8.7;15.7;748.8;
129;2014-04-01 21:21:01;10;48;21.1;63;15.4;1002.4;0.0;0.3;SW;1005.6;8.4;15.4;748.8;
130;2014-04-01 21:31:01;10;48;21.1;64;15.3;1002.4;0.0;0.3;SW;1005.6;8.5;15.3;748.8;
131;2014-04-01 21:41:01;10;48;21.1;64;15.4;1002.4;0.0;0.7;S;1005.6;8.6;15.4;748.8;
132;2014-04-01 21:51:00;10;48;21.1;64;15.2;1002.3;0.0;0.0;S;1005.5;8.4;15.2;748.8;
133;2014-04-01 22:01:00;10;48;21.1;65;14.8;1002.2;0.0;0.0;S;1005.4;8.3;14.8;748.8;
134;2014-04-01 22:11:01;10;48;21.0;66;14.7;1001.9;0.0;0.7;SW;1005.1;8.4;14.7;748.8;
135;2014-04-01 22:21:01;10;48;21.0;66;14.6;1001.8;0.0;0.3;SE;1005.0;8.3;14.6;748.8;
136;2014-04-01 22:31:01;10;48;21.0;66;14.4;1001.9;0.0;0.3;S;1005.1;8.1;14.4;748.8;
137;2014-04-01 22:41:01;10;49;20.9;66;14.3;1001.9;0.0;0.0;S;1005.1;8.0;14.3;748.8;
138;2014-04-01 22:51:01;10;49;20.9;66;14.1;1002.0;0.0;0.0;N;1005.2;7.8;14.1;748.8;
139;2014-04-01 23:01:01;10;49;20.9;68;13.7;1002.0;0.0;0.0;SW;1005.2;7.9;13.7;748.8;
140;2014-04-01 23:11:01;10;48;20.9;69;13.2;1002.0;0.0;0.0;SW;1005.2;7.6;13.2;748.8;
141;2014-04-01 23:21:01;10;48;20.9;71;12.9;1002.1;0.0;0.0;SW;1005.3;7.8;12.9;748.8;
142;2014-04-01 23:31:01;10;48;20.9;72;13.0;1002.1;0.0;0.0;SW;1005.3;8.1;13.0;748.8;
143;2014-04-01 23:41:01;10;48;20.9;72;12.7;1002.2;0.0;0.0;SW;1005.4;7.8;12.7;748.8;
144;2014-04-01 23:51:00;10;48;20.7;73;12.5;1002.0;0.0;0.0;N;1005.2;7.8;12.5;748.8;
145;2014-04-02 00:01:00;10;48;20.7;74;12.4;1002.0;0.0;0.0;SW;1005.2;7.9;12.4;748.8;
146;2014-04-02 00:11:01;10;48;20.7;74;12.3;1001.8;0.0;0.0;W;1005.0;7.8;12.3;748.8;
147;2014-04-02 00:21:01;10;48;20.7;75;12.3;1001.9;0.0;0.0;SW;1005.1;8.0;12.3;748.8;
148;2014-04-02 00:31:01;10;48;20.7;74;12.3;1001.8;0.0;0.0;SW;1005.0;7.8;12.3;748.8;
149;2014-04-02 00:41:01;10;48;20.7;74;12.1;1001.7;0.0;0.0;SW;1004.9;7.6;12.1;748.8;
150;2014-04-02 00:51:00;10;48;20.7;74;12.3;1001.6;0.0;0.0;NW;1004.8;7.8;12.3;748.8;
151;2014-04-02 01:01:00;10;48;20.7;73;12.3;1001.4;0.0;0.3;NW;1004.6;7.6;12.3;748.8;
152;2014-04-02 01:11:01;10;48;20.7;73;12.3;1001.2;0.0;0.0;N;1004.4;7.6;12.3;748.8;
153;2014-04-02 01:21:01;10;48;20.7;73;12.0;1001.1;0.0;0.3;SW;1004.3;7.3;12.0;748.8;
154;2014-04-02 01:31:01;10;48;20.7;74;12.0;1000.7;0.0;0.0;S;1003.9;7.5;12.0;748.8;
155;2014-04-02 01:41:01;10;48;20.6;75;12.0;1000.8;0.0;0.0;S;1004.0;7.7;12.0;748.8;
156;2014-04-02 01:51:00;10;48;20.7;74;12.1;1000.8;0.0;0.0;S;1004.0;7.6;12.1;748.8;
157;2014-04-02 02:01:00;10;47;20.6;75;11.9;1000.7;0.0;0.0;S;1003.9;7.6;11.9;748.8;
158;2014-04-02 02:11:01;10;47;20.6;76;11.6;1000.7;0.0;0.0;S;1003.9;7.5;11.6;748.8;
159;2014-04-02 02:21:01;10;47;20.6;76;11.2;1000.6;0.0;0.0;S;1003.8;7.1;11.2;748.8;
160;2014-04-02 02:31:01;10;47;20.6;77;11.0;1000.4;0.0;0.0;S;1003.6;7.1;11.0;748.8;
161;2014-04-02 02:41:01;10;47;20.6;79;10.7;1000.5;0.0;0.0;S;1003.7;7.2;10.7;748.8;
162;2014-04-02 02:51:01;10;47;20.6;81;10.6;1000.5;0.0;0.0;S;1003.7;7.5;10.6;748.8;
163;2014-04-02 03:01:01;10;47;20.5;83;10.7;1000.6;0.0;0.0;S;1003.8;7.9;10.7;748.8;
164;2014-04-02 03:11:01;10;47;20.6;83;10.9;1000.6;0.0;0.0;S;1003.8;8.1;10.9;748.8;
165;2014-04-02 03:21:01;10;47;20.5;82;10.8;1000.5;0.0;0.0;S;1003.7;7.9;10.8;748.8;
166;2014-04-02 03:31:01;10;47;20.5;83;10.8;1000.5;0.0;0.0;S;1003.7;8.0;10.8;748.8;
167;2014-04-02 03:41:01;10;47;20.5;83;10.9;1000.3;0.0;0.0;S;1003.5;8.1;10.9;748.8;
168;2014-04-02 03:51:00;10;47;20.5;82;11.0;1000.4;0.0;0.0;S;1003.6;8.0;11.0;748.8;
169;2014-04-02 04:01:00;10;47;20.5;82;11.1;1000.4;0.0;0.0;S;1003.6;8.1;11.1;748.8;
170;2014-04-02 04:11:01;10;47;20.5;82;11.3;1000.5;0.0;0.0;SE;1003.7;8.3;11.3;748.8;
171;2014-04-02 04:21:01;10;47;20.5;81;11.2;1000.4;0.0;0.0;SE;1003.6;8.1;11.2;748.8;
172;2014-04-02 04:31:01;10;47;20.5;82;11.3;1000.4;0.0;0.0;SE;1003.6;8.3;11.3;748.8;
173;2014-04-02 04:41:01;10;47;20.4;82;11.3;1000.3;0.0;0.0;SE;1003.5;8.3;11.3;748.8;
174;2014-04-02 04:51:01;10;47;20.4;82;11.2;1000.2;0.0;0.0;SE;1003.4;8.2;11.2;748.8;
175;2014-04-02 05:01:01;10;47;20.4;82;11.2;1000.3;0.0;0.0;SE;1003.5;8.2;11.2;748.8;
176;2014-04-02 05:11:01;10;47;20.4;82;11.2;1000.1;0.0;0.0;SE;1003.3;8.2;11.2;748.8;
177;2014-04-02 05:21:01;10;47;20.4;82;11.2;1000.1;0.0;0.0;SE;1003.3;8.2;11.2;748.8;
178;2014-04-02 05:31:01;10;47;20.4;82;11.1;1000.1;0.0;0.0;SE;1003.3;8.1;11.1;748.8;
179;2014-04-02 05:41:01;10;47;20.4;82;11.0;1000.1;0.0;0.0;SE;1003.3;8.0;11.0;748.8;
180;2014-04-02 05:51:01;10;47;20.4;83;11.2;1000.1;0.0;0.0;SE;1003.3;8.4;11.2;748.8;
181;2014-04-02 06:01:01;10;47;20.4;83;11.2;1000.1;0.0;0.0;SE;1003.3;8.4;11.2;748.8;
182;2014-04-02 06:11:01;10;47;20.5;83;11.3;1000.2;0.0;0.0;SE;1003.4;8.5;11.3;748.8;
183;2014-04-02 06:21:01;10;48;20.6;83;11.5;1000.1;0.0;0.0;SE;1003.3;8.7;11.5;748.8;
184;2014-04-02 06:31:01;10;48;20.6;82;11.8;1000.1;0.0;0.0;SE;1003.3;8.8;11.8;748.8;
185;2014-04-02 06:41:01;10;48;20.7;81;12.0;1000.1;0.0;0.0;SE;1003.3;8.8;12.0;748.8;
186;2014-04-02 06:51:01;10;47;20.6;80;12.4;999.8;0.0;0.0;SE;1003.0;9.0;12.4;748.8;
187;2014-04-02 07:01:01;10;47;20.5;77;13.1;1000.0;0.0;0.0;SE;1003.2;9.2;13.1;748.8;
188;2014-04-02 07:11:01;10;48;20.5;74;14.2;999.9;0.0;0.0;SE;1003.1;9.6;14.2;748.8;
189;2014-04-02 07:21:01;10;48;20.5;68;14.8;999.8;0.0;0.0;SE;1003.0;8.9;14.8;748.8;
190;2014-04-02 07:31:01;10;48;20.5;66;15.3;999.8;0.0;0.0;S;1003.0;9.0;15.3;748.8;
191;2014-04-02 07:41:01;10;48;20.6;66;15.1;999.8;0.0;0.0;S;1003.0;8.8;15.1;748.8;
192;2014-04-02 07:51:01;10;48;20.6;63;16.1;999.7;0.0;0.0;S;1002.9;9.1;16.1;748.8;
193;2014-04-02 08:01:01;10;48;20.7;62;16.6;999.9;0.0;0.0;SE;1003.1;9.3;16.6;748.8;
194;2014-04-02 08:11:01;10;48;20.7;61;16.7;999.9;0.0;0.0;SE;1003.1;9.1;16.7;748.8;
195;2014-04-02 08:21:01;10;48;20.7;57;17.1;999.7;0.0;0.0;SE;1002.9;8.5;17.1;748.8;
196;2014-04-02 08:31:01;10;48;20.7;57;17.0;999.7;0.0;0.0;S;1002.9;8.4;17.0;748.8;
197;2014-04-02 08:41:01;10;48;20.7;56;17.3;999.7;0.0;0.0;S;1002.9;8.4;17.3;748.8;
198;2014-04-02 08:51:01;10;48;20.7;55;18.5;999.5;0.0;0.3;S;1002.7;9.3;18.5;748.8;
199;2014-04-02 09:01:01;10;49;20.7;54;18.5;999.5;0.0;0.0;NW;1002.7;9.0;18.5;748.8;
200;2014-04-02 09:11:01;10;49;20.7;55;18.6;999.6;1.0;1.4;S;1002.8;9.4;18.6;748.8;
201;2014-04-02 09:21:01;10;49;20.8;55;18.8;999.3;1.4;4.4;NE;1002.5;9.6;18.8;748.8;
202;2014-04-02 09:31:00;10;49;20.9;51;19.9;999.1;0.7;1.7;E;1002.3;9.5;19.9;748.8;
203;2014-04-02 09:41:00;10;49;20.9;48;20.0;999.2;1.4;2.7;W;1002.4;8.6;20.0;748.8;
204;2014-04-02 09:51:00;10;49;20.9;49;20.8;999.5;1.7;3.1;SW;1002.7;9.7;20.8;748.8;
205;2014-04-02 10:01:01;10;49;20.9;45;21.1;999.4;1.4;2.7;NE;1002.6;8.7;21.1;748.8;
206;2014-04-02 10:11:01;10;49;20.9;47;20.8;999.1;0.3;0.7;SE;1002.3;9.1;20.8;748.8;
207;2014-04-02 10:21:01;10;49;20.9;47;20.3;998.9;0.7;1.4;NW;1002.1;8.6;20.3;748.8;
208;2014-04-02 10:31:01;10;49;20.9;50;19.9;998.9;1.0;1.7;N;1002.1;9.2;19.9;748.8;
209;2014-04-02 10:41:01;10;48;21.0;50;19.8;999.1;1.4;2.4;NW;1002.3;9.1;19.8;748.8;
210;2014-04-02 10:51:01;10;48;21.1;48;20.2;998.9;1.4;2.0;W;1002.1;8.8;20.2;748.8;
211;2014-04-02 11:01:01;10;48;21.0;45;21.4;998.9;1.0;1.7;S;1002.1;9.0;21.4;748.8;
212;2014-04-02 11:11:01;10;48;21.1;42;22.9;998.8;0.7;1.4;NE;1002.0;9.3;22.9;748.8;
213;2014-04-02 11:21:01;10;48;21.1;40;23.7;998.9;0.3;1.0;NE;1002.1;9.3;23.7;748.8;
214;2014-04-02 11:31:01;10;48;21.1;37;24.0;998.8;1.4;2.7;SSE;1002.0;8.4;24.0;748.8;
215;2014-04-02 11:41:01;10;48;21.2;39;23.5;998.6;0.7;1.7;W;1001.8;8.7;23.5;748.8;
216;2014-04-02 11:51:01;10;48;21.2;39;23.3;998.4;0.7;1.7;SE;1001.6;8.6;23.3;748.8;
217;2014-04-02 12:01:01;10;48;21.2;41;22.8;998.3;1.4;2.0;W;1001.5;8.9;22.8;748.8;
218;2014-04-02 12:11:01;10;49;21.2;40;23.0;998.2;0.7;1.4;NW;1001.4;8.7;23.0;748.8;
219;2014-04-02 12:21:01;10;49;21.3;41;22.8;998.1;0.0;0.7;N;1001.3;8.9;22.8;748.8;
220;2014-04-02 12:31:01;10;49;21.3;42;22.2;997.9;0.3;1.0;W;1001.1;8.7;22.2;748.8;
221;2014-04-02 12:41:01;10;49;21.3;43;21.9;998.1;0.3;1.0;E;1001.3;8.7;21.9;748.8;
222;2014-04-02 12:51:01;10;52;21.4;44;21.6;998.0;1.0;1.7;S;1001.2;8.8;21.6;748.8;
223;2014-04-02 13:01:01;10;49;21.4;44;21.4;998.1;0.3;1.0;E;1001.3;8.6;21.4;748.8;
224;2014-04-02 13:11:01;10;49;21.4;43;21.8;998.0;0.7;1.0;E;1001.2;8.7;21.8;748.8;
225;2014-04-02 13:21:01;10;49;21.5;43;21.8;997.8;1.0;1.4;N;1001.0;8.7;21.8;748.8;
226;2014-04-02 13:31:01;10;52;21.5;43;21.6;997.7;1.0;2.0;NE;1000.9;8.5;21.6;748.8;
227;2014-04-02 13:41:01;10;49;21.6;---;---;997.8;---;---;---;1001.0;---;---;748.8;
228;2014-04-02 13:51:01;10;49;21.6;43;21.1;997.7;0.7;1.4;N;1000.9;8.0;21.1;748.8;
229;2014-04-02 14:01:01;10;49;21.6;43;21.3;997.5;0.7;1.4;N;1000.7;8.2;21.3;748.8;
230;2014-04-02 14:11:01;10;49;21.6;42;21.6;997.2;0.3;1.4;SW;1000.4;8.1;21.6;748.8;
231;2014-04-02 14:21:01;10;49;21.6;42;21.6;997.1;0.7;2.0;S;1000.3;8.1;21.6;748.8;
232;2014-04-02 14:31:01;10;48;21.7;43;21.1;996.9;0.3;1.0;W;1000.1;8.0;21.1;748.8;
233;2014-04-02 14:41:01;10;48;21.6;45;20.9;996.7;0.3;1.4;S;999.9;8.5;20.9;748.8;
234;2014-04-02 14:51:01;10;48;21.6;45;20.8;996.7;0.3;1.0;NW;999.9;8.4;20.8;748.8;
235;2014-04-02 15:01:01;10;48;21.6;47;20.8;996.4;1.0;1.4;SW;999.6;9.1;20.8;748.8;
236;2014-04-02 15:11:01;10;48;21.6;47;20.9;996.4;0.7;2.4;SE;999.6;9.2;20.9;748.8;
237;2014-04-02 15:21:01;10;48;21.6;46;20.6;996.4;0.7;1.4;SW;999.6;8.6;20.6;748.8;
238;2014-04-02 15:31:01;10;48;21.6;46;20.6;996.8;1.0;1.7;SE;1000.0;8.6;20.6;748.8;
239;2014-04-02 15:41:01;10;48;21.6;45;20.3;997.0;1.0;1.7;NW;1000.2;8.0;20.3;748.8;
240;2014-04-02 15:51:00;10;47;21.6;45;20.3;996.9;1.0;1.7;E;1000.1;8.0;20.3;748.8;
241;2014-04-02 16:01:00;10;47;21.5;46;20.2;997.1;0.7;1.0;S;1000.3;8.2;20.2;748.8;
242;2014-04-02 16:11:01;10;47;21.5;47;20.0;997.0;0.7;1.4;SW;1000.2;8.3;20.0;748.8;
243;2014-04-02 16:21:01;10;47;21.5;48;20.0;997.1;0.3;0.7;SW;1000.3;8.6;20.0;748.8;
244;2014-04-02 16:31:01;10;46;21.4;48;20.0;996.9;0.3;1.0;NE;1000.1;8.6;20.0;748.8;
245;2014-04-02 16:41:01;10;46;21.4;48;20.0;996.7;0.0;0.7;W;999.9;8.6;20.0;748.8;
246;2014-04-02 16:51:01;10;46;21.3;49;20.0;996.7;0.0;1.4;SE;999.9;9.0;20.0;748.8;
247;2014-04-02 17:01:01;10;47;21.3;50;20.0;996.8;0.3;1.0;NW;1000.0;9.3;20.0;748.8;
248;2014-04-02 17:11:01;10;47;21.3;51;19.9;996.7;0.7;1.0;W;999.9;9.5;19.9;748.8;
249;2014-04-02 17:21:01;10;47;21.3;50;19.8;996.3;0.3;1.0;SW;999.5;9.1;19.8;748.8;
250;2014-04-02 17:31:01;10;47;21.2;51;19.7;996.1;0.0;0.3;NW;999.3;9.3;19.7;748.8;
251;2014-04-02 17:41:01;10;48;21.3;51;19.5;996.5;0.0;0.3;SW;999.7;9.1;19.5;748.8;
252;2014-04-02 17:51:01;10;48;21.3;53;19.4;995.9;0.0;0.7;SW;999.1;9.6;19.4;748.8;
253;2014-04-02 18:01:01;10;48;21.3;53;19.2;995.8;0.0;0.3;W;999.0;9.4;19.2;748.8;
254;2014-04-02 18:11:01;10;48;21.3;54;19.1;996.0;0.0;0.0;SW;999.2;9.6;19.1;748.8;
255;2014-04-02 18:21:01;10;49;21.3;54;19.0;996.0;0.3;0.7;SW;999.2;9.5;19.0;748.8;
256;2014-04-02 18:31:01;10;49;21.3;55;18.8;996.0;0.3;0.7;S;999.2;9.6;18.8;748.8;
257;2014-04-02 18:41:01;10;49;21.3;55;18.7;996.0;0.0;0.3;SW;999.2;9.5;18.7;748.8;
258;2014-04-02 18:51:01;10;49;21.3;55;18.5;996.2;0.0;0.0;N;999.4;9.3;18.5;748.8;
259;2014-04-02 19:01:01;10;52;21.3;56;18.2;996.1;0.0;0.3;SW;999.3;9.3;18.2;748.8;
260;2014-04-02 19:11:01;10;50;21.3;56;17.9;996.3;0.0;0.3;S;999.5;9.0;17.9;748.8;
261;2014-04-02 19:21:01;10;49;21.3;57;17.7;996.2;0.0;0.7;SW;999.4;9.1;17.7;748.8;
262;2014-04-02 19:31:01;10;52;21.2;57;17.7;996.2;0.0;0.0;S;999.4;9.1;17.7;748.8;
263;2014-04-02 19:41:01;10;49;21.2;58;17.5;996.1;0.0;0.0;SW;999.3;9.1;17.5;748.8;
264;2014-04-02 19:51:01;10;52;21.2;58;17.4;996.1;0.0;0.3;W;999.3;9.0;17.4;748.8;
265;2014-04-02 20:01:01;10;49;21.2;59;17.3;996.0;0.0;0.3;S;999.2;9.2;17.3;748.8;
266;2014-04-02 20:11:01;10;50;21.2;59;17.3;996.0;0.0;0.3;SW;999.2;9.2;17.3;748.8;
267;2014-04-02 20:21:01;10;50;21.2;59;17.2;995.9;0.0;0.0;SE;999.1;9.1;17.2;748.8;
268;2014-04-02 20:31:01;10;50;21.2;60;17.1;995.8;0.0;0.3;N;999.0;9.3;17.1;748.8;
269;2014-04-02 20:41:01;10;50;21.2;60;17.0;995.7;0.0;0.3;SW;998.9;9.2;17.0;748.8;
270;2014-04-02 20:51:01;10;50;21.3;62;16.9;995.5;0.0;0.0;SW;998.7;9.6;16.9;748.8;
271;2014-04-02 21:01:01;10;50;21.3;62;16.8;995.5;0.0;0.3;SW;998.7;9.5;16.8;748.8;
272;2014-04-02 21:11:01;10;50;21.3;62;16.8;995.3;0.0;0.0;NW;998.5;9.5;16.8;748.8;
273;2014-04-02 21:21:01;10;49;21.3;62;16.8;995.2;0.3;1.0;SE;998.4;9.5;16.8;748.8;
274;2014-04-02 21:31:01;10;49;21.3;61;16.6;995.3;0.0;0.3;S;998.5;9.0;16.6;748.8;
275;2014-04-02 21:41:01;10;52;21.2;61;16.6;995.1;0.3;0.7;SW;998.3;9.0;16.6;748.8;
276;2014-04-02 21:51:00;10;49;21.2;61;16.6;994.8;0.3;1.0;S;998.0;9.0;16.6;748.8;
277;2014-04-02 22:01:00;10;49;21.2;61;16.6;994.9;0.3;0.7;NE;998.1;9.0;16.6;748.8;
278;2014-04-02 22:11:01;10;49;21.2;62;16.4;995.0;0.0;0.7;S;998.2;9.1;16.4;748.8;
279;2014-04-02 22:21:01;10;49;21.2;62;16.2;994.9;0.0;0.3;SW;998.1;8.9;16.2;748.8;
280;2014-04-02 22:31:01;10;49;21.1;62;16.1;994.9;0.7;1.0;S;998.1;8.8;16.1;748.8;
281;2014-04-02 22:41:01;10;49;21.1;62;16.1;994.7;0.3;1.0;SE;997.9;8.8;16.1;748.8;
282;2014-04-02 22:51:01;10;49;21.1;62;16.0;994.7;0.3;1.0;S;997.9;8.7;16.0;748.8;
283;2014-04-02 23:01:01;10;49;21.1;63;15.8;994.6;0.3;1.0;S;997.8;8.8;15.8;748.8;
284;2014-04-02 23:11:01;10;49;21.1;63;15.7;994.5;0.0;0.0;SW;997.7;8.7;15.7;748.8;
285;2014-04-02 23:21:01;10;49;21.0;64;15.5;994.4;0.7;1.0;SE;997.6;8.7;15.5;748.8;
286;2014-04-02 23:31:01;10;49;21.0;63;15.7;994.4;0.0;0.3;SW;997.6;8.7;15.7;748.8;
287;2014-04-02 23:41:01;10;49;21.0;63;15.8;994.2;0.0;0.7;SE;997.4;8.8;15.8;748.8;